Dewpoint
-5 -5 -4 -3 -3 -3 -2 -6 -9 -7 -8 -8 -2 -1 1 1 4 7 4 9 12 13 14 14 13 10 11 9 8 8 7 7 6 6 7 8 9 11 11 10 9 7 8 9 9 10 8 8 8
-6 -1 -3 -4 -1 -1 -3 -8 -8 -8 -6 -5 -3 -2 -2 -1 3 2 4 6 12 14 15 14 13 11 11 9 8 8 8 7 6 6 7 7 8 11 12 10 9 9 8 9 9 10 10 10 10
-0 0 -2 -1 -2 -1 -6 -9 -9 -6 -7 -7 -6 -6 -5 -4 -5 -1 5 2 12 15 15 14 10 11 10 9 9 9 8 7 7 6 6 7 8 11 12 10 9 9 9 9 9 10 11 11 11
-2 -0 -2 -2 -0 -3 -5 -9 -9 -5 -5 -4 -4 -3 -11 -9 -8 -2 8 5 7 14 15 15 15 12 10 10 9 9 8 8 7 6 5 6 8 11 12 10 9 9 10 10 10 10 11 11 11
-2 -2 -1 0 -1 -3 -5 -6 -6 -4 -4 -4 -8 -9 -14 -13 -6 6 6 3 7 14 16 15 16 15 14 11 10 9 8 8 6 5 5 6 7 10 11 10 10 10 10 10 10 11 11 11 12
-2 -3 -2 -1 -3 -2 -3 -5 -5 -7 -7 -6 -11 -13 -15 -13 -9 8 4 4 2 5 9 12 15 15 13 13 11 11 9 7 5 4 4 6 7 9 11 9 9 10 10 10 10 10 11 11 12
-3 -2 -0 -1 -2 -2 -5 -7 -7 -11 -11 -11 -7 -10 -16 -15 -15 -11 -7 13 12 10 13 14 14 15 13 13 12 11 10 9 5 3 3 6 7 8 9 9 10 9 10 9 9 10 11 11 12
-5 -4 -2 -3 -3 -8 -14 -15 -13 -15 -15 -15 -9 -8 -15 -17 -17 -15 -13 -11 -7 0 2 13 15 14 14 14 11 11 10 8 6 4 4 3 6 8 8 9 9 10 10 10 9 10 10 11 11
-9 -5 -3 -4 -5 -12 -19 -19 -19 -18 -14 -15 -15 -16 -17 -17 -17 -18 -16 -12 -10 -9 -7 -3 11 14 15 15 15 13 11 9 9 7 6 5 4 4 7 9 10 10 10 10 9 10 10 10 11
-8 -5 -5 -8 -11 -17 -20 -20 -20 -21 -16 -14 -16 -18 -18 -18 -17 -13 -8 -7 -7 -7 -7 -7 -5 5 10 12 14 14 14 13 12 9 6 6 6 5 4 7 10 11 10 10 10 10 10 10 10
-11 -6 -8 -12 -19 -21 -21 -19 -20 -20 -15 -14 -17 -18 -17 -13 -9 -8 -5 -2 -1 -1 -4 -4 -4 -4 -4 0 6 12 14 14 14 14 10 5 7 8 7 7 9 10 10 10 10 10 10 9 10
-13 -14 -12 -14 -17 -20 -19 -19 -19 -19 -16 -17 -19 -17 -15 -8 -5 -4 -3 -3 -2 -0 -1 -2 -2 -2 -3 -3 -2 -1 5 12 13 14 14 12 5 7 9 9 8 9 10 10 11 10 10 10 10
-14 -16 -15 -16 -18 -19 -18 -18 -17 -18 -17 -19 -19 -15 -8 -3 -1 -1 -2 -2 -1 -2 -1 -2 -1 -2 -2 -3 -3 -4 -4 -2 2 11 13 14 13 8 8 9 10 8 10 11 11 10 10 10 10
-15 -17 -17 -17 -18 -18 -17 -17 -17 -18 -19 -19 -16 -6 -2 -2 -2 -3 -3 -2 -2 -2 -3 -4 -4 -5 -4 -4 -4 -4 -5 -7 -5 -3 9 13 14 13 11 9 11 11 11 10 11 10 10 10 10
-13 -15 -16 -17 -18 -19 -17 -18 -18 -18 -18 -18 -3 -1 -1 -2 -3 -2 -1 -2 -3 -3 -5 -8 -8 -7 -6 -7 -7 -7 -8 -9 -10 -8 -5 6 12 14 14 12 11 11 11 10 12 9 10 10 10
-12 -12 -12 -16 -17 -17 -18 -16 -17 -17 -18 -17 -0 -0 -1 -1 -1 -1 -2 -3 -4 -5 -6 -7 -7 -7 -6 -6 -7 -7 -8 -8 -8 -8 -10 -6 2 10 13 13 12 11 12 11 12 10 10 11 11
-12 -10 -13 -14 -16 -16 -17 -16 -18 -17 -19 -8 0 -0 -1 -1 -2 -3 -5 -9 -9 -7 -7 -7 -8 -7 -6 -6 -6 -6 -8 -8 -7 -6 -6 -10 -8 2 5 12 13 12 11 12 12 12 10 10 10
-10 -12 -13 -13 -15 -16 -16 -17 -19 -18 -17 -0 1 -0 -1 -2 -3 -7 -10 -10 -7 -6 -7 -6 -6 -6 -5 -5 -4 -5 -5 -5 -6 -5 -5 -4 -8 -8 -0 5 11 13 12 11 12 13 11 11 10
-11 -11 -12 -17 -16 -16 -14 -16 -17 -17 -1 1 -0 -1 -1 -3 -4 -7 -9 -8 -7 -7 -7 -7 -6 -5 -4 -4 -4 -3 -3 -3 -3 -2 -0 -1 -2 -5 -0 1 3 10 14 11 12 13 12 11 11
-10 -9 -13 -16 -18 -17 -17 -17 -18 -18 -2 -0 -1 -1 -2 -4 -5 -7 -9 -8 -7 -7 -7 -7 -5 -3 -2 -2 -2 -1 -1 -1 -0 1 1 2 2 0 -1 3 3 7 11 12 11 12 13 12 11
-12 -13 -14 -15 -17 -18 -18 -15 -17 -1 -1 -1 -1 -1 -3 -5 -5 -5 -5 -5 -6 -6 -7 -7 -4 -2 -1 -1 -1 -0 0 1 2 2 2 2 2 2 1 3 5 8 7 12 11 12 12 12 11
-10 -13 -14 -15 -15 -13 -16 -13 -14 0 -0 -2 -1 -2 -3 -4 -4 -4 -6 -7 -6 -7 -8 -7 -3 -1 -1 -0 -0 0 1 1 2 2 3 3 3 2 2 2 4 5 9 6 13 11 13 12 12
-11 -11 -11 -12 -13 -13 -14 -13 -12 0 1 -1 -2 -2 -2 -3 -3 -4 -4 -4 -5 -8 -8 -8 -3 -1 -1 -0 -0 0 0 0 1 3 3 3 2 1 1 2 3 5 9 8 7 12 13 12 12
-12 -13 -12 -12 -12 -10 -12 -13 -10 -8 0 -1 -2 -2 -3 -3 -3 -4 -3 -4 -5 -8 -9 -9 -5 -1 -1 -0 0 0 -1 -1 0 1 1 2 2 2 2 1 2 4 4 10 9 11 13 12 12
-13 -11 -8 -7 -8 -9 -9 -11 -14 -1 -2 -1 -1 -2 -3 -2 -3 -3 -3 -4 -5 -8 -9 -8 -6 -1 -1 -1 0 0 0 -0 1 2 1 1 1 4 4 4 2 4 4 3 7 9 11 12 11
-12 -10 -3 -4 -2 -2 -6 -5 -1 -2 -2 -2 -2 -2 -2 -2 -3 -3 -3 -4 -5 -7 -8 -7 -6 -2 -2 -2 -0 0 0 0 1 1 1 1 2 3 6 5 4 2 4 3 2 6 2 6 11
-9 -9 -8 -3 -3 -1 -4 0 -1 -2 -2 -2 -2 -2 -2 -2 -3 -3 -4 -5 -6 -7 -8 -7 -5 -4 -3 -3 -2 -0 1 0 1 1 0 1 2 4 4 5 5 3 4 4 6 7 3 5 11
-8 -7 -3 -2 -2 -2 -6 -0 0 0 -1 -2 -2 -2 -2 -3 -4 -4 -5 -5 -6 -6 -7 -7 -6 -5 -4 -4 -3 -1 0 -0 -0 -0 1 1 2 5 3 4 5 4 1 4 5 8 5 3 7
-8 -4 -4 -2 -2 -0 -0 -2 -1 -1 -1 -1 -2 -3 -3 -4 -4 -4 -5 -6 -6 -6 -7 -7 -6 -6 -5 -4 -3 -2 -1 -1 -0 1 0 2 3 5 6 4 5 1 -0 -2 -4 2 5 3 9
-11 -7 -3 1 -2 0 0 -0 -1 -1 -1 -2 -2 -3 -3 -4 -4 -5 -5 -6 -6 -6 -6 -7 -6 -6 -5 -5 -4 -3 -2 -1 0 1 2 1 4 5 6 7 4 4 2 -2 -2 3 5 4 5
Wind_Speed
6 5 5 2 4 5 4 4 1 1 2 6 18 22 11 6 4 5 3 11 9 10 5 3 5 8 7 6 6 6 6 5 5 4 4 4 5 5 5 3 3 2 2 4 5 7 8 9 7
4 2 2 1 5 4 5 4 5 3 4 20 20 18 15 7 12 7 11 12 10 8 5 10 6 9 7 7 7 6 6 5 5 5 4 5 5 6 6 5 4 3 3 4 6 7 7 7 7
6 4 1 4 4 4 1 4 4 2 14 9 6 19 8 3 14 5 12 14 7 5 4 9 3 5 6 7 7 6 6 5 5 5 5 6 6 7 8 6 5 4 4 4 5 6 6 7 6
6 2 2 3 2 4 4 3 4 5 11 11 21 9 20 20 9 9 10 14 9 5 6 7 5 4 5 6 7 7 6 6 6 6 6 7 7 8 9 7 5 5 6 5 6 6 6 7 7
8 2 3 3 4 4 4 1 6 2 5 16 19 7 14 21 22 15 17 16 12 9 9 10 10 9 7 7 7 7 7 7 7 7 7 8 9 10 10 8 7 6 7 7 7 6 6 7 7
3 2 3 1 2 5 3 9 19 11 11 12 19 11 9 13 20 16 16 19 20 16 15 16 13 12 9 9 8 7 7 8 9 8 8 10 11 11 10 10 9 8 8 8 8 8 8 8 8
3 3 2 1 2 1 6 5 6 8 7 7 7 6 7 12 17 17 19 14 13 14 16 18 17 15 12 6 9 9 8 9 10 10 10 11 12 13 12 12 11 10 9 9 10 10 9 9 10
3 4 4 2 1 2 4 10 8 8 5 4 5 5 4 11 8 10 14 18 22 26 23 12 12 15 16 12 9 11 12 12 12 11 12 13 14 14 15 14 13 12 11 11 11 11 11 11 11
3 4 2 2 2 2 10 5 5 12 22 18 14 19 15 10 7 5 6 11 12 14 16 22 11 7 10 12 13 13 15 16 15 15 14 15 15 16 17 16 15 15 14 13 13 13 12 12 13
2 4 6 3 4 1 5 8 5 4 8 11 16 15 11 10 9 14 18 15 12 11 10 10 11 12 8 10 9 10 13 17 17 19 19 17 17 18 19 18 18 18 16 16 15 15 15 15 15
2 5 5 4 8 5 3 1 3 3 4 6 12 12 11 13 18 17 19 18 15 12 7 9 9 9 8 10 13 11 12 13 17 21 21 23 21 20 21 21 21 21 20 19 19 19 19 17 17
3 10 7 11 10 6 5 1 3 2 7 15 14 12 13 19 21 19 16 12 8 10 11 12 14 16 15 16 14 15 17 16 18 17 21 23 25 24 24 24 24 23 22 21 21 21 20 19 18
5 3 2 9 10 7 9 4 4 6 14 13 13 13 22 24 21 18 14 10 12 11 15 17 18 20 24 25 26 25 22 19 21 22 22 24 25 25 26 28 28 26 22 21 21 22 22 21 20
5 4 5 2 3 4 6 3 4 4 19 13 16 26 25 21 17 11 8 14 17 19 20 25 26 28 28 30 32 31 31 30 28 24 25 24 29 31 27 29 32 30 26 25 21 23 24 22 22
5 5 4 5 4 3 3 5 5 14 17 15 27 27 24 20 11 12 14 17 18 21 24 25 26 26 27 29 29 31 33 34 34 35 31 28 30 31 35 33 34 35 31 26 23 20 22 22 19
5 3 2 4 4 8 9 5 4 23 17 18 29 25 23 18 15 13 14 16 20 24 27 26 27 28 29 31 33 35 34 34 35 35 37 35 33 33 36 40 37 38 37 31 29 24 22 24 21
3 4 4 8 9 5 5 3 8 16 12 19 26 24 20 17 14 14 16 19 20 21 23 26 29 32 33 34 37 39 40 42 41 37 36 40 39 38 36 39 43 40 41 39 34 31 28 28 25
5 4 4 5 4 3 4 5 6 8 6 22 23 21 18 15 15 15 14 15 17 21 26 30 32 34 36 39 42 42 44 43 44 45 40 39 43 43 42 41 42 46 43 43 41 38 35 32 28
5 4 5 4 4 4 7 4 8 2 25 19 15 17 18 16 13 13 15 18 22 25 29 33 36 37 39 41 44 44 47 47 48 45 47 41 40 46 44 45 41 44 49 47 47 42 38 36 35
11 11 7 1 2 4 4 6 9 5 12 19 18 15 14 12 13 18 21 23 26 29 33 36 37 38 40 42 43 45 47 49 47 45 43 44 34 38 45 44 44 42 47 48 50 50 46 41 40
5 4 4 5 2 4 3 5 9 6 16 15 15 15 12 13 15 18 22 24 27 32 35 36 37 37 39 42 45 46 45 41 42 43 44 40 38 32 40 45 47 42 44 49 54 54 52 49 46
7 4 4 4 3 4 2 4 6 8 7 8 11 12 12 12 15 18 22 26 28 31 34 34 36 37 39 41 43 42 41 45 45 49 48 47 41 39 36 45 46 45 43 48 50 58 58 54 52
6 4 4 2 3 3 1 1 7 12 7 8 9 10 10 10 14 18 18 20 24 30 34 35 35 35 38 39 38 39 39 41 44 46 47 46 44 39 36 38 50 44 40 48 49 57 61 59 52
8 5 5 5 3 3 7 7 5 6 10 9 8 9 8 8 11 15 16 21 27 32 35 36 35 33 35 36 37 37 38 40 43 45 44 45 40 39 37 29 44 50 44 44 52 52 61 63 59
5 7 1 3 0 6 7 8 10 6 12 10 10 8 6 7 11 14 17 23 30 35 36 35 33 33 34 35 35 38 37 38 40 42 43 44 43 40 37 36 35 54 45 46 46 49 31 41 63
6 8 6 6 5 3 2 5 3 9 16 16 12 9 6 7 12 13 17 25 32 36 36 35 33 32 33 34 34 35 37 35 38 38 36 40 40 42 35 42 34 44 42 42 41 47 48 60 51
5 5 6 3 3 2 3 3 4 9 9 11 10 7 6 6 8 12 21 27 31 32 33 34 33 32 33 35 34 34 35 35 35 35 33 36 39 36 31 31 31 30 36 33 34 42 35 56 47
7 6 3 1 5 5 5 5 4 14 10 7 5 5 4 7 12 16 23 25 27 29 32 33 32 32 34 36 35 33 34 38 34 35 30 33 30 28 21 21 21 26 27 32 31 39 40 50 58
3 3 3 4 4 4 3 4 4 14 9 7 5 4 7 13 16 18 19 24 27 29 34 35 33 34 34 35 35 35 36 37 38 33 29 28 27 20 15 21 22 26 30 28 28 34 46 49 40
7 7 6 4 3 3 1 4 6 7 10 12 6 3 6 10 9 14 20 25 28 30 35 36 33 34 33 35 35 36 37 37 36 36 31 27 28 21 14 20 26 26 32 36 36 38 47 42 52
Wind_Direction
350 319 327 325 52 63 303 318 267 321 20 27 81 89 95 74 84 139 18 3 357 16 29 343 278 203 195 188 174 167 173 173 171 169 175 189 201 212 213 247 260 248 204 184 189 191 188 199 212
2 344 1 27 82 60 298 287 80 7 59 107 88 89 61 67 87 64 32 14 338 39 28 349 262 205 195 194 186 180 186 193 192 190 198 205 208 216 216 232 256 251 225 201 195 198 201 205 214
357 354 349 94 109 147 270 226 192 75 68 59 85 58 29 36 55 36 30 19 331 60 32 39 18 221 208 200 192 190 199 210 212 211 211 218 213 217 220 230 247 249 238 217 208 201 199 202 203
349 27 63 86 125 258 231 208 211 92 75 69 104 69 62 52 36 39 47 27 10 34 40 28 35 324 258 231 212 207 216 224 229 227 225 224 219 219 220 230 238 240 246 234 221 207 201 200 202
345 11 47 34 318 270 16 190 160 38 82 97 94 106 70 53 54 71 49 43 34 24 18 359 344 320 283 247 241 234 237 241 246 241 234 230 225 220 219 228 237 236 243 238 229 213 207 200 195
343 42 52 94 2 320 22 74 74 65 68 98 94 86 61 61 59 76 54 52 43 42 34 25 3 344 310 252 239 249 259 265 262 253 241 233 229 222 224 232 232 236 238 237 234 220 218 210 202
121 78 225 62 271 65 349 28 54 76 63 29 107 105 94 75 65 76 70 70 46 34 26 24 18 14 11 280 258 257 258 266 269 261 250 240 233 229 229 234 235 235 239 236 231 225 222 217 209
329 91 353 348 295 97 341 68 65 35 42 40 126 132 119 74 68 73 69 72 62 64 50 31 12 7 2 354 304 286 275 268 264 259 256 252 244 240 235 234 237 237 241 238 230 225 222 216 214
256 56 350 279 181 164 37 57 47 67 75 83 98 104 99 88 85 69 43 45 50 53 50 51 50 5 350 344 339 343 321 296 289 274 259 253 251 250 246 243 242 243 245 242 234 230 222 218 214
93 115 220 214 161 93 63 69 2 32 107 92 99 96 80 72 56 61 70 64 48 35 33 37 45 54 19 342 318 308 320 331 323 306 275 258 253 251 251 248 247 249 247 243 237 234 227 220 214
216 205 190 159 122 134 113 55 13 25 35 160 117 86 70 79 90 88 79 72 66 52 27 17 18 10 15 17 359 318 287 278 299 315 310 274 259 252 249 248 245 246 245 243 237 235 232 226 216
275 264 180 168 168 143 157 127 356 66 156 133 117 106 99 103 92 91 89 77 55 39 24 3 344 341 333 329 325 337 323 293 287 274 290 299 273 259 251 249 248 246 244 243 242 239 239 231 223
198 322 60 165 171 154 160 171 215 154 151 140 125 112 109 102 94 87 75 57 30 10 357 348 338 326 323 318 313 308 303 301 300 288 275 270 284 275 260 253 249 248 245 243 248 245 239 234 231
293 284 307 233 266 230 178 206 189 212 167 151 122 111 108 102 91 94 66 25 14 0 346 340 329 323 314 308 306 303 299 295 287 284 278 267 264 276 277 262 250 247 244 245 247 252 238 235 235
300 331 337 240 226 228 201 320 226 179 167 147 110 114 105 95 93 66 35 16 359 347 342 334 330 324 323 321 313 306 301 294 289 283 275 270 272 262 269 271 257 249 245 243 241 243 231 228 226
335 21 352 284 142 203 161 246 317 168 176 154 121 112 107 93 77 56 29 5 349 338 331 331 328 325 322 319 318 317 312 304 295 284 275 265 264 266 262 259 262 253 245 241 236 237 229 222 226
333 248 236 313 207 150 158 189 243 187 196 123 124 117 108 94 70 43 17 357 341 337 334 333 332 332 329 326 323 318 312 308 302 293 280 268 259 256 260 260 255 259 247 239 236 235 230 225 225
218 211 254 241 233 119 167 207 247 226 164 132 128 117 107 91 60 36 17 357 346 343 341 340 337 334 332 328 326 320 316 309 302 298 289 274 262 254 253 255 258 250 252 240 235 234 229 230 225
286 301 264 278 181 110 190 222 256 241 119 129 124 112 101 81 53 32 16 4 357 350 343 341 338 336 333 330 327 320 315 310 307 300 297 285 268 260 250 250 256 253 247 243 234 235 233 229 222
256 248 247 301 110 112 172 236 263 338 141 145 129 108 92 70 37 17 7 360 356 349 343 343 340 339 338 334 330 324 317 309 305 304 301 295 285 269 258 249 248 254 249 240 233 230 230 228 222
239 201 210 196 25 359 89 325 262 44 107 113 106 103 79 47 29 16 7 2 356 349 346 343 342 340 339 338 333 328 319 312 314 313 305 301 298 277 264 252 246 246 252 242 236 230 228 226 217
208 188 153 107 99 191 115 260 263 145 123 108 108 91 70 41 26 15 5 2 354 346 344 345 344 342 341 342 337 331 326 322 321 317 314 310 302 292 273 257 250 246 249 246 235 232 228 227 220
217 148 132 119 104 61 277 318 258 131 161 157 150 111 79 46 26 17 7 355 347 348 350 348 345 345 343 342 339 332 327 321 317 313 310 308 304 299 289 264 248 247 241 245 244 233 228 226 221
146 83 40 43 86 271 193 184 240 190 181 155 146 115 75 47 33 14 3 353 353 354 353 349 344 343 344 343 341 336 332 324 316 312 311 308 304 301 299 279 255 243 242 241 240 235 225 225 223
102 99 293 316 242 235 223 209 252 103 127 145 149 121 79 44 23 8 1 356 356 358 354 347 342 343 346 346 343 338 337 326 315 310 310 306 302 298 293 290 261 243 242 243 244 246 231 216 227
194 160 161 214 205 239 187 230 247 109 126 137 135 116 79 41 16 6 1 2 1 0 355 350 345 344 347 349 345 339 337 332 320 310 307 301 297 295 289 290 259 237 240 248 255 243 261 254 234
197 193 168 81 282 54 203 102 90 140 142 145 138 121 79 46 13 6 6 4 1 0 358 352 349 345 348 349 344 343 341 334 330 318 318 305 297 292 289 282 255 229 240 244 252 248 235 227 234
148 154 98 355 196 223 240 201 225 175 165 157 155 131 103 28 14 8 6 2 1 2 359 356 353 350 350 349 347 343 343 341 339 332 330 311 303 301 278 282 233 237 240 240 246 243 237 216 233
130 161 185 168 170 189 193 247 226 164 157 156 155 53 36 14 10 1 359 2 2 1 360 358 356 352 351 348 347 349 345 346 342 340 331 333 318 315 281 256 249 241 238 244 246 242 224 230 219
199 195 167 153 199 248 161 244 106 119 141 146 143 70 36 12 1 357 1 2 1 1 359 358 354 354 353 348 349 351 351 349 348 340 343 342 338 319 287 266 248 246 251 248 250 230 227 230 224
Height
1517 1517 1516 1515 1525 1531 1536 1520 1512 1509 1507 1504 1500 1498 1509 1511 1514 1534 1522 1519 1517 1517 1517 1518 1517 1517 1518 1517 1518 1518 1519 1519 1519 1519 1520 1520 1520 1522 1523 1523 1524 1523 1524 1524 1525 1526 1527 1528 1528
1517 1517 1516 1514 1535 1547 1539 1517 1513 1508 1504 1504 1503 1505 1509 1518 1518 1520 1521 1519 1517 1517 1518 1517 1516 1516 1516 1517 1517 1517 1518 1519 1518 1519 1519 1520 1520 1522 1522 1523 1524 1525 1524 1524 1525 1526 1527 1528 1528
1517 1516 1516 1519 1538 1542 1532 1514 1511 1507 1504 1502 1505 1512 1516 1521 1521 1522 1521 1520 1518 1517 1518 1517 1517 1518 1517 1517 1517 1518 1518 1519 1518 1518 1518 1519 1519 1521 1522 1523 1523 1525 1524 1524 1524 1525 1526 1527 1527
1517 1517 1518 1526 1530 1524 1515 1510 1510 1507 1506 1506 1507 1519 1524 1524 1523 1523 1523 1521 1519 1518 1518 1517 1518 1518 1519 1518 1517 1518 1518 1519 1518 1518 1517 1518 1518 1519 1521 1522 1523 1523 1525 1524 1525 1525 1525 1526 1526
1518 1518 1527 1531 1530 1518 1512 1511 1510 1509 1508 1509 1508 1525 1525 1526 1524 1523 1523 1522 1520 1519 1519 1519 1519 1519 1518 1518 1518 1518 1518 1518 1518 1518 1517 1518 1518 1518 1519 1521 1522 1523 1523 1524 1524 1525 1525 1525 1526
1518 1520 1533 1540 1527 1516 1513 1511 1511 1511 1510 1513 1515 1519 1527 1527 1522 1523 1524 1523 1522 1521 1521 1520 1519 1519 1518 1518 1518 1518 1518 1519 1518 1518 1517 1517 1517 1517 1518 1520 1520 1521 1522 1523 1524 1524 1525 1525 1526
1519 1526 1532 1529 1526 1520 1516 1511 1511 1514 1512 1513 1516 1522 1528 1526 1525 1524 1523 1523 1522 1522 1521 1521 1520 1519 1518 1517 1517 1517 1517 1518 1518 1517 1517 1517 1516 1516 1517 1518 1519 1519 1520 1522 1522 1523 1523 1524 1525
1520 1522 1529 1527 1527 1526 1518 1515 1514 1513 1514 1515 1516 1521 1525 1525 1525 1524 1523 1524 1523 1521 1520 1520 1521 1521 1520 1518 1517 1517 1516 1516 1516 1515 1516 1516 1516 1516 1515 1516 1517 1518 1519 1520 1521 1521 1522 1523 1524
1519 1530 1538 1527 1522 1520 1517 1517 1516 1517 1515 1515 1519 1522 1523 1524 1523 1522 1521 1522 1519 1520 1520 1519 1518 1518 1518 1519 1520 1518 1518 1517 1517 1516 1515 1515 1514 1515 1515 1515 1515 1516 1517 1518 1519 1520 1520 1521 1522
1519 1531 1527 1519 1519 1520 1518 1518 1518 1518 1519 1521 1521 1521 1523 1521 1521 1518 1518 1519 1521 1520 1520 1519 1519 1517 1517 1517 1516 1516 1517 1516 1515 1515 1514 1512 1512 1512 1512 1513 1514 1514 1515 1516 1516 1518 1518 1519 1520
1517 1523 1518 1518 1518 1518 1518 1519 1518 1519 1523 1520 1519 1520 1520 1519 1517 1519 1520 1521 1521 1521 1520 1519 1519 1518 1517 1516 1515 1514 1511 1510 1511 1512 1512 1512 1510 1510 1510 1510 1510 1511 1511 1512 1513 1514 1515 1516 1517
1519 1511 1514 1516 1515 1517 1518 1518 1517 1518 1519 1519 1517 1518 1517 1517 1519 1521 1521 1522 1522 1522 1521 1520 1518 1517 1516 1515 1515 1514 1512 1509 1506 1506 1508 1509 1508 1507 1506 1507 1506 1506 1508 1508 1509 1511 1512 1514 1514
1514 1511 1512 1512 1514 1513 1515 1516 1516 1518 1519 1518 1517 1515 1514 1517 1520 1521 1522 1522 1522 1521 1521 1520 1519 1517 1515 1514 1512 1510 1509 1507 1506 1504 1503 1503 1504 1504 1503 1502 1503 1502 1504 1504 1505 1507 1509 1510 1512
1512 1510 1510 1511 1510 1511 1513 1515 1515 1514 1517 1517 1514 1511 1514 1517 1520 1520 1519 1520 1520 1521 1520 1519 1516 1514 1513 1512 1509 1507 1504 1502 1501 1500 1499 1499 1497 1499 1500 1498 1498 1498 1499 1500 1501 1502 1505 1506 1507
1512 1511 1509 1506 1507 1509 1510 1514 1513 1510 1515 1514 1512 1512 1514 1517 1518 1518 1519 1519 1521 1521 1519 1516 1513 1511 1508 1505 1504 1502 1500 1497 1494 1493 1493 1493 1492 1490 1494 1493 1492 1493 1495 1496 1498 1499 1501 1503 1504
1514 1513 1518 1504 1503 1505 1510 1521 1509 1509 1511 1513 1513 1513 1514 1517 1517 1517 1518 1520 1521 1519 1516 1514 1512 1508 1505 1502 1498 1494 1492 1489 1487 1485 1484 1485 1485 1485 1484 1485 1486 1487 1489 1492 1494 1495 1496 1499 1501
1519 1525 1521 1513 1501 1503 1509 1515 1508 1510 1510 1513 1512 1512 1514 1516 1516 1516 1517 1518 1518 1517 1514 1511 1507 1502 1498 1494 1490 1486 1483 1480 1477 1476 1475 1475 1475 1476 1475 1475 1478 1481 1482 1485 1487 1489 1492 1494 1496
1522 1520 1515 1515 1504 1502 1507 1508 1507 1508 1508 1512 1513 1513 1513 1514 1515 1515 1516 1516 1515 1513 1510 1506 1502 1497 1491 1487 1482 1478 1472 1469 1467 1464 1464 1464 1463 1465 1466 1465 1468 1471 1474 1476 1479 1482 1485 1488 1492
1511 1511 1513 1505 1499 1504 1508 1508 1505 1505 1508 1513 1515 1514 1512 1512 1515 1515 1513 1513 1512 1509 1505 1501 1496 1492 1487 1482 1476 1471 1465 1459 1455 1453 1451 1451 1451 1452 1455 1455 1457 1460 1462 1466 1471 1476 1479 1481 1486
1511 1514 1512 1503 1500 1503 1509 1511 1505 1503 1509 1511 1513 1514 1512 1513 1512 1511 1511 1509 1507 1505 1503 1499 1494 1489 1483 1477 1473 1468 1459 1450 1446 1442 1440 1438 1440 1440 1441 1445 1446 1449 1452 1456 1459 1464 1469 1473 1478
1507 1508 1505 1507 1504 1503 1508 1518 1508 1513 1513 1514 1515 1513 1512 1511 1510 1509 1509 1508 1505 1503 1499 1495 1491 1486 1480 1473 1467 1460 1454 1446 1439 1435 1431 1429 1427 1430 1430 1430 1433 1436 1441 1444 1448 1453 1458 1463 1467
1508 1500 1502 1503 1510 1521 1510 1531 1510 1512 1515 1515 1515 1512 1510 1510 1509 1508 1506 1504 1503 1503 1500 1493 1488 1483 1476 1469 1462 1457 1449 1439 1435 1428 1422 1419 1418 1417 1419 1419 1422 1425 1430 1433 1435 1441 1446 1453 1455
1502 1500 1503 1505 1513 1515 1511 1525 1512 1508 1513 1513 1512 1511 1509 1509 1509 1507 1507 1507 1506 1499 1491 1487 1484 1480 1473 1466 1462 1454 1445 1438 1430 1424 1417 1412 1406 1406 1406 1408 1409 1413 1417 1420 1426 1429 1435 1441 1447
1497 1503 1507 1512 1518 1526 1510 1516 1505 1501 1500 1509 1510 1509 1507 1506 1506 1506 1507 1506 1502 1495 1487 1481 1480 1478 1471 1464 1458 1451 1442 1433 1424 1417 1410 1403 1399 1394 1393 1395 1396 1399 1404 1409 1412 1418 1419 1425 1437
1496 1507 1527 1528 1530 1520 1498 1507 1488 1495 1500 1503 1507 1507 1507 1507 1506 1504 1503 1501 1497 1487 1481 1480 1478 1473 1468 1460 1454 1448 1439 1430 1421 1413 1404 1397 1392 1388 1383 1384 1382 1384 1390 1395 1402 1394 1384 1416 1426
1498 1499 1525 1523 1522 1509 1493 1500 1497 1498 1502 1506 1508 1507 1508 1507 1507 1505 1503 1496 1490 1484 1482 1481 1475 1469 1464 1457 1451 1445 1438 1427 1418 1408 1399 1391 1384 1378 1373 1369 1368 1372 1380 1383 1386 1390 1386 1395 1415
1494 1500 1495 1510 1511 1516 1501 1504 1506 1503 1505 1508 1508 1507 1506 1506 1506 1504 1497 1491 1488 1484 1482 1480 1473 1466 1461 1455 1447 1440 1433 1423 1412 1404 1395 1386 1377 1369 1363 1358 1357 1362 1371 1374 1378 1381 1392 1392 1407
1479 1485 1503 1511 1510 1511 1496 1493 1491 1499 1503 1506 1507 1505 1505 1504 1501 1498 1493 1492 1488 1484 1482 1479 1471 1464 1458 1452 1444 1436 1428 1419 1409 1400 1388 1380 1370 1362 1357 1354 1354 1359 1363 1367 1371 1372 1378 1389 1384
1483 1490 1489 1495 1503 1501 1494 1484 1481 1490 1499 1504 1505 1502 1499 1498 1496 1497 1498 1492 1484 1480 1478 1473 1468 1462 1455 1449 1440 1432 1423 1414 1404 1394 1383 1371 1365 1356 1352 1351 1353 1354 1356 1358 1361 1363 1371 1379 1389
1472 1475 1482 1498 1489 1491 1494 1490 1490 1495 1498 1501 1501 1500 1498 1499 1501 1500 1496 1489 1482 1477 1473 1470 1467 1462 1454 1446 1437 1428 1420 1410 1400 1388 1379 1367 1358 1354 1348 1346 1344 1345 1347 1348 1350 1355 1359 1364 1373